Year,Month,Day,Hour,Minute,Value (Times are PST for temperature in C)
2015,06,28,00,00,17.60
2015,06,28,00,01,17.60
2015,06,28,00,02,17.50
2015,06,28,00,03,17.50
2015,06,28,00,04,17.50
2015,06,28,00,05,17.50
2015,06,28,00,06,17.50
2015,06,28,00,07,17.50
2015,06,28,00,08,17.50
2015,06,28,00,09,17.50
2015,06,28,00,10,17.40
2015,06,28,00,11,17.40
2015,06,28,00,12,17.40
2015,06,28,00,13,17.40
2015,06,28,00,14,17.40
2015,06,28,00,15,17.40
2015,06,28,00,16,17.40
2015,06,28,00,17,17.40
2015,06,28,00,18,17.40
2015,06,28,00,19,17.40
2015,06,28,00,20,17.40
2015,06,28,00,21,17.40
2015,06,28,00,22,17.30
2015,06,28,00,23,17.30
2015,06,28,00,24,17.30
2015,06,28,00,25,17.30
2015,06,28,00,26,17.30
2015,06,28,00,27,17.30
2015,06,28,00,28,17.30
2015,06,28,00,29,17.30
2015,06,28,00,30,17.30
2015,06,28,00,31,17.30
2015,06,28,00,32,17.30
2015,06,28,00,33,17.30
2015,06,28,00,34,17.30
2015,06,28,00,35,17.30
2015,06,28,00,36,17.30
2015,06,28,00,37,17.30
2015,06,28,00,38,17.30
2015,06,28,00,39,17.30
2015,06,28,00,40,17.30
2015,06,28,00,41,17.30
2015,06,28,00,42,17.30
2015,06,28,00,43,17.30
2015,06,28,00,44,17.30
2015,06,28,00,45,17.30
2015,06,28,00,46,17.30
2015,06,28,00,47,17.30
2015,06,28,00,48,17.20
2015,06,28,00,49,17.20
2015,06,28,00,50,17.20
2015,06,28,00,51,17.20
2015,06,28,00,52,17.20
2015,06,28,00,53,17.20
2015,06,28,00,54,17.20
2015,06,28,00,55,17.20
2015,06,28,00,56,17.20
2015,06,28,00,57,17.20
2015,06,28,00,58,17.20
2015,06,28,00,59,17.20
2015,06,28,01,00,17.20
2015,06,28,01,01,17.20
2015,06,28,01,02,17.10
2015,06,28,01,03,17.10
2015,06,28,01,04,17.10
2015,06,28,01,05,17.10
2015,06,28,01,06,17.10
2015,06,28,01,07,17.00
2015,06,28,01,08,16.90
2015,06,28,01,09,16.90
2015,06,28,01,10,16.80
2015,06,28,01,11,16.80
2015,06,28,01,12,16.80
2015,06,28,01,13,16.80
2015,06,28,01,14,16.80
2015,06,28,01,15,16.80
2015,06,28,01,16,16.80
2015,06,28,01,17,16.70
2015,06,28,01,18,16.70
2015,06,28,01,19,16.70
2015,06,28,01,20,16.70
2015,06,28,01,21,16.60
2015,06,28,01,22,16.60
2015,06,28,01,23,16.60
2015,06,28,01,24,16.50
2015,06,28,01,25,16.50
2015,06,28,01,26,16.50
2015,06,28,01,27,16.40
2015,06,28,01,28,16.40
2015,06,28,01,29,16.30
2015,06,28,01,30,16.30
2015,06,28,01,31,16.30
2015,06,28,01,32,16.30
2015,06,28,01,33,16.30
2015,06,28,01,34,16.30
2015,06,28,01,35,16.20
2015,06,28,01,36,16.20
2015,06,28,01,37,16.20
2015,06,28,01,38,16.20
2015,06,28,01,39,16.20
2015,06,28,01,40,16.20
2015,06,28,01,41,16.20
2015,06,28,01,42,16.20
2015,06,28,01,43,16.20
2015,06,28,01,44,16.20
2015,06,28,01,45,16.30
2015,06,28,01,46,16.30
2015,06,28,01,47,16.30
2015,06,28,01,48,16.30
2015,06,28,01,49,16.30
2015,06,28,01,50,16.30
2015,06,28,01,51,16.30
2015,06,28,01,52,16.30
2015,06,28,01,53,16.40
2015,06,28,01,54,16.40
2015,06,28,01,55,16.40
2015,06,28,01,56,16.40
2015,06,28,01,57,16.30
2015,06,28,01,58,16.30
2015,06,28,01,59,16.30
2015,06,28,02,00,16.30
2015,06,28,02,01,16.20
2015,06,28,02,02,16.20
2015,06,28,02,03,16.20
2015,06,28,02,04,16.10
2015,06,28,02,05,16.10
2015,06,28,02,06,16.10
2015,06,28,02,07,16.10
2015,06,28,02,08,16.00
2015,06,28,02,09,16.00
2015,06,28,02,10,15.90
2015,06,28,02,11,15.90
2015,06,28,02,12,15.90
2015,06,28,02,13,15.80
2015,06,28,02,14,15.80
2015,06,28,02,15,15.80
2015,06,28,02,16,15.90
2015,06,28,02,17,15.90
2015,06,28,02,18,16.00
2015,06,28,02,19,16.00
2015,06,28,02,20,16.00
2015,06,28,02,21,16.00
2015,06,28,02,22,16.00
2015,06,28,02,23,16.00
2015,06,28,02,24,16.00
2015,06,28,02,25,16.00
2015,06,28,02,26,15.90
2015,06,28,02,27,15.90
2015,06,28,02,28,15.80
2015,06,28,02,29,15.90
2015,06,28,02,30,15.90
2015,06,28,02,31,15.90
2015,06,28,02,32,16.00
2015,06,28,02,33,16.10
2015,06,28,02,34,16.10
2015,06,28,02,35,16.10
2015,06,28,02,36,16.10
2015,06,28,02,37,16.20
2015,06,28,02,38,16.20
2015,06,28,02,39,16.20
2015,06,28,02,40,16.20
2015,06,28,02,41,16.20
2015,06,28,02,42,16.20
2015,06,28,02,43,16.20
2015,06,28,02,44,16.20
2015,06,28,02,45,16.20
2015,06,28,02,46,16.20
2015,06,28,02,47,16.20
2015,06,28,02,48,16.10
2015,06,28,02,49,16.10
2015,06,28,02,50,16.10
2015,06,28,02,51,16.10
2015,06,28,02,52,16.00
2015,06,28,02,53,16.00
2015,06,28,02,54,16.00
2015,06,28,02,55,16.00
2015,06,28,02,56,16.00
2015,06,28,02,57,15.90
2015,06,28,02,58,15.90
2015,06,28,02,59,15.90
2015,06,28,03,00,15.90
2015,06,28,03,01,15.90
2015,06,28,03,02,15.90
2015,06,28,03,03,15.90
2015,06,28,03,04,15.90
2015,06,28,03,05,15.90
2015,06,28,03,06,15.90
2015,06,28,03,07,15.90
2015,06,28,03,08,15.90
2015,06,28,03,09,15.90
2015,06,28,03,10,15.90
2015,06,28,03,11,15.90
2015,06,28,03,12,15.90
2015,06,28,03,13,15.90
2015,06,28,03,14,15.90
2015,06,28,03,15,15.90
2015,06,28,03,16,15.90
2015,06,28,03,17,15.90
2015,06,28,03,18,15.90
2015,06,28,03,19,15.90
2015,06,28,03,20,15.90
2015,06,28,03,21,15.90
2015,06,28,03,22,15.90
2015,06,28,03,23,15.90
2015,06,28,03,24,15.90
2015,06,28,03,25,15.90
2015,06,28,03,26,15.80
2015,06,28,03,27,15.80
2015,06,28,03,28,15.80
2015,06,28,03,29,15.80
2015,06,28,03,30,15.80
2015,06,28,03,31,15.80
2015,06,28,03,32,15.80
2015,06,28,03,33,15.80
2015,06,28,03,34,15.80
2015,06,28,03,35,15.80
2015,06,28,03,36,15.80
2015,06,28,03,37,15.80
2015,06,28,03,38,15.80
2015,06,28,03,39,15.80
2015,06,28,03,40,15.90
2015,06,28,03,41,15.90
2015,06,28,03,42,15.90
2015,06,28,03,43,15.90
2015,06,28,03,44,15.90
2015,06,28,03,45,15.90
2015,06,28,03,46,16.00
2015,06,28,03,47,16.00
2015,06,28,03,48,16.00
2015,06,28,03,49,16.00
2015,06,28,03,50,16.00
2015,06,28,03,51,16.00
2015,06,28,03,52,15.90
2015,06,28,03,53,15.90
2015,06,28,03,54,15.90
2015,06,28,03,55,15.90
2015,06,28,03,56,15.90
2015,06,28,03,57,15.90
2015,06,28,03,58,15.90
2015,06,28,03,59,16.00
2015,06,28,04,00,16.00
2015,06,28,04,01,16.00
2015,06,28,04,02,16.00
2015,06,28,04,03,16.00
2015,06,28,04,04,16.00
2015,06,28,04,05,16.10
2015,06,28,04,06,16.10
2015,06,28,04,07,16.10
2015,06,28,04,08,16.20
2015,06,28,04,09,16.20
2015,06,28,04,10,16.30
2015,06,28,04,11,16.30
2015,06,28,04,12,16.30
2015,06,28,04,13,16.30
2015,06,28,04,14,16.30
2015,06,28,04,15,16.30
2015,06,28,04,16,16.30
2015,06,28,04,17,16.30
2015,06,28,04,18,16.30
2015,06,28,04,19,16.30
2015,06,28,04,20,16.30
2015,06,28,04,21,16.30
2015,06,28,04,22,16.30
2015,06,28,04,23,16.30
2015,06,28,04,24,16.30
2015,06,28,04,25,16.30
2015,06,28,04,26,16.30
2015,06,28,04,27,16.30
2015,06,28,04,28,16.30
2015,06,28,04,29,16.30
2015,06,28,04,30,16.40
2015,06,28,04,31,16.40
2015,06,28,04,32,16.40
2015,06,28,04,33,16.40
2015,06,28,04,34,16.40
2015,06,28,04,35,16.40
2015,06,28,04,36,16.40
2015,06,28,04,37,16.40
2015,06,28,04,38,16.40
2015,06,28,04,39,16.30
2015,06,28,04,40,16.30
2015,06,28,04,41,16.30
2015,06,28,04,42,16.30
2015,06,28,04,43,16.30
2015,06,28,04,44,16.30
2015,06,28,04,45,16.30
2015,06,28,04,46,16.30
2015,06,28,04,47,16.30
2015,06,28,04,48,16.30
2015,06,28,04,49,16.30
2015,06,28,04,50,16.30
2015,06,28,04,51,16.30
2015,06,28,04,52,16.30
2015,06,28,04,53,16.30
2015,06,28,04,54,16.30
2015,06,28,04,55,16.30
2015,06,28,04,56,16.30
2015,06,28,04,57,16.30
2015,06,28,04,58,16.30
2015,06,28,04,59,16.30
2015,06,28,05,00,16.40
2015,06,28,05,01,16.40
2015,06,28,05,02,16.40
2015,06,28,05,03,16.40
2015,06,28,05,04,16.40
2015,06,28,05,05,16.40
2015,06,28,05,06,16.40
2015,06,28,05,07,16.40
2015,06,28,05,08,16.50
2015,06,28,05,09,16.50
2015,06,28,05,10,16.50
2015,06,28,05,11,16.60
2015,06,28,05,12,16.60
2015,06,28,05,13,16.60
2015,06,28,05,14,16.60
2015,06,28,05,15,16.60
2015,06,28,05,16,16.70
2015,06,28,05,17,16.70
2015,06,28,05,18,16.70
2015,06,28,05,19,16.70
2015,06,28,05,20,16.60
2015,06,28,05,21,16.60
2015,06,28,05,22,16.60
2015,06,28,05,23,16.60
2015,06,28,05,24,16.50
2015,06,28,05,25,16.50
2015,06,28,05,26,16.40
2015,06,28,05,27,16.40
2015,06,28,05,28,16.30
2015,06,28,05,29,16.30
2015,06,28,05,30,16.30
2015,06,28,05,31,16.30
2015,06,28,05,32,16.30
2015,06,28,05,33,16.20
2015,06,28,05,34,16.20
2015,06,28,05,35,16.20
2015,06,28,05,36,16.20
2015,06,28,05,37,16.20
2015,06,28,05,38,16.10
2015,06,28,05,39,16.10
2015,06,28,05,40,16.10
2015,06,28,05,41,16.10
2015,06,28,05,42,16.10
2015,06,28,05,43,16.10
2015,06,28,05,44,16.10
2015,06,28,05,45,16.10
2015,06,28,05,46,16.10
2015,06,28,05,47,16.10
2015,06,28,05,48,16.10
2015,06,28,05,49,16.10
2015,06,28,05,50,16.10
2015,06,28,05,51,16.10
2015,06,28,05,52,16.10
2015,06,28,05,53,16.10
2015,06,28,05,54,16.10
2015,06,28,05,55,16.20
2015,06,28,05,56,16.20
2015,06,28,05,57,16.20
2015,06,28,05,58,16.20
2015,06,28,05,59,16.20
2015,06,28,06,00,16.20
2015,06,28,06,01,16.20
2015,06,28,06,02,16.20
2015,06,28,06,03,16.20
2015,06,28,06,04,16.20
2015,06,28,06,05,16.20
2015,06,28,06,06,16.20
2015,06,28,06,07,16.20
2015,06,28,06,08,16.10
2015,06,28,06,09,16.10
2015,06,28,06,10,16.10
2015,06,28,06,11,16.10
2015,06,28,06,12,16.10
2015,06,28,06,13,16.00
2015,06,28,06,14,16.00
2015,06,28,06,15,16.00
2015,06,28,06,16,15.90
2015,06,28,06,17,15.90
2015,06,28,06,18,15.90
2015,06,28,06,19,15.90
2015,06,28,06,20,15.90
2015,06,28,06,21,16.00
2015,06,28,06,22,16.00
2015,06,28,06,23,16.10
2015,06,28,06,24,16.10
2015,06,28,06,25,16.10
2015,06,28,06,26,16.10
2015,06,28,06,27,16.20
2015,06,28,06,28,16.20
2015,06,28,06,29,16.20
2015,06,28,06,30,16.30
2015,06,28,06,31,16.30
2015,06,28,06,32,16.30
2015,06,28,06,33,16.30
2015,06,28,06,34,16.30
2015,06,28,06,35,16.40
2015,06,28,06,36,16.40
2015,06,28,06,37,16.50
2015,06,28,06,38,16.50
2015,06,28,06,39,16.60
2015,06,28,06,40,16.60
2015,06,28,06,41,16.70
2015,06,28,06,42,16.70
2015,06,28,06,43,16.70
2015,06,28,06,44,16.70
2015,06,28,06,45,16.80
2015,06,28,06,46,16.80
2015,06,28,06,47,16.90
2015,06,28,06,48,17.00
2015,06,28,06,49,17.00
2015,06,28,06,50,17.10
2015,06,28,06,51,17.20
2015,06,28,06,52,17.20
2015,06,28,06,53,17.30
2015,06,28,06,54,17.30
2015,06,28,06,55,17.40
2015,06,28,06,56,17.40
2015,06,28,06,57,17.50
2015,06,28,06,58,17.60
2015,06,28,06,59,17.70
2015,06,28,07,00,17.80
2015,06,28,07,01,17.80
2015,06,28,07,02,17.90
2015,06,28,07,03,18.00
2015,06,28,07,04,18.00
2015,06,28,07,05,18.10
2015,06,28,07,06,18.10
2015,06,28,07,07,18.20
2015,06,28,07,08,18.20
2015,06,28,07,09,18.30
2015,06,28,07,10,18.30
2015,06,28,07,11,18.40
2015,06,28,07,12,18.50
2015,06,28,07,13,18.50
2015,06,28,07,14,18.60
2015,06,28,07,15,18.70
2015,06,28,07,16,18.80
2015,06,28,07,17,18.90
2015,06,28,07,18,19.00
2015,06,28,07,19,19.10
2015,06,28,07,20,19.20
2015,06,28,07,21,19.30
2015,06,28,07,22,19.40
2015,06,28,07,23,19.60
2015,06,28,07,24,19.70
2015,06,28,07,25,19.70
2015,06,28,07,26,19.80
2015,06,28,07,27,19.80
2015,06,28,07,28,19.90
2015,06,28,07,29,19.90
2015,06,28,07,30,20.00
2015,06,28,07,31,20.00
2015,06,28,07,32,20.10
2015,06,28,07,33,20.10
2015,06,28,07,34,20.20
2015,06,28,07,35,20.20
2015,06,28,07,36,20.20
2015,06,28,07,37,20.20
2015,06,28,07,38,20.20
2015,06,28,07,39,20.20
2015,06,28,07,40,20.20
2015,06,28,07,41,20.20
2015,06,28,07,42,20.20
2015,06,28,07,43,20.20
2015,06,28,07,44,20.30
2015,06,28,07,45,20.30
2015,06,28,07,46,20.40
2015,06,28,07,47,20.40
2015,06,28,07,48,20.50
2015,06,28,07,49,20.60
2015,06,28,07,50,20.70
2015,06,28,07,51,20.70
2015,06,28,07,52,20.80
2015,06,28,07,53,20.90
2015,06,28,07,54,21.00
2015,06,28,07,55,21.10
2015,06,28,07,56,21.20
2015,06,28,07,57,21.30
2015,06,28,07,58,21.40
2015,06,28,07,59,21.50
2015,06,28,08,00,21.50
2015,06,28,08,01,21.60
2015,06,28,08,02,21.70
2015,06,28,08,03,21.70
2015,06,28,08,04,21.80
2015,06,28,08,05,21.80
2015,06,28,08,06,21.90
2015,06,28,08,07,22.00
2015,06,28,08,08,22.00
2015,06,28,08,09,22.10
2015,06,28,08,10,22.20
2015,06,28,08,11,22.30
2015,06,28,08,12,22.40
2015,06,28,08,13,22.50
2015,06,28,08,14,22.70
2015,06,28,08,15,22.80
2015,06,28,08,16,22.90
2015,06,28,08,17,23.00
2015,06,28,08,18,23.10
2015,06,28,08,19,23.20
2015,06,28,08,20,23.30
2015,06,28,08,21,23.50
2015,06,28,08,22,23.50
2015,06,28,08,23,23.50
2015,06,28,08,24,23.50
2015,06,28,08,25,23.50
2015,06,28,08,26,23.40
2015,06,28,08,27,23.40
2015,06,28,08,28,23.30
2015,06,28,08,29,23.20
2015,06,28,08,30,23.10
2015,06,28,08,31,23.00
2015,06,28,08,32,23.00
2015,06,28,08,33,22.90
2015,06,28,08,34,22.80
2015,06,28,08,35,22.80
2015,06,28,08,36,22.70
2015,06,28,08,37,22.70
2015,06,28,08,38,22.70
2015,06,28,08,39,22.70
2015,06,28,08,40,22.70
2015,06,28,08,41,22.70
2015,06,28,08,42,22.70
2015,06,28,08,43,22.70
2015,06,28,08,44,22.80
2015,06,28,08,45,22.80
2015,06,28,08,46,22.90
2015,06,28,08,47,22.90
2015,06,28,08,48,23.00
2015,06,28,08,49,23.10
2015,06,28,08,50,23.20
2015,06,28,08,51,23.40
2015,06,28,08,52,23.50
2015,06,28,08,53,23.60
2015,06,28,08,54,23.70
2015,06,28,08,55,23.80
2015,06,28,08,56,23.90
2015,06,28,08,57,24.00
2015,06,28,08,58,24.10
2015,06,28,08,59,24.10
2015,06,28,09,00,24.10
2015,06,28,09,01,24.20
2015,06,28,09,02,24.20
2015,06,28,09,03,24.30
2015,06,28,09,04,24.30
2015,06,28,09,05,24.30
2015,06,28,09,06,24.40
2015,06,28,09,07,24.40
2015,06,28,09,08,24.40
2015,06,28,09,09,24.40
2015,06,28,09,10,24.40
2015,06,28,09,11,24.40
2015,06,28,09,12,24.40
2015,06,28,09,13,24.40
2015,06,28,09,14,24.40
2015,06,28,09,15,24.30
2015,06,28,09,16,24.30
2015,06,28,09,17,24.20
2015,06,28,09,18,24.10
2015,06,28,09,19,24.10
2015,06,28,09,20,24.10
2015,06,28,09,21,24.10
2015,06,28,09,22,24.10
2015,06,28,09,23,24.10
2015,06,28,09,24,24.10
2015,06,28,09,25,24.00
2015,06,28,09,26,23.90
2015,06,28,09,27,23.80
2015,06,28,09,28,23.70
2015,06,28,09,29,23.60
2015,06,28,09,30,23.60
2015,06,28,09,31,23.60
2015,06,28,09,32,23.60
2015,06,28,09,33,23.50
2015,06,28,09,34,23.50
2015,06,28,09,35,23.50
2015,06,28,09,36,23.50
2015,06,28,09,37,23.50
2015,06,28,09,38,23.40
2015,06,28,09,39,23.30
2015,06,28,09,40,23.30
2015,06,28,09,41,23.30
2015,06,28,09,42,23.30
2015,06,28,09,43,23.30
2015,06,28,09,44,23.40
2015,06,28,09,45,23.50
2015,06,28,09,46,23.50
2015,06,28,09,47,23.60
2015,06,28,09,48,23.60
2015,06,28,09,49,23.70
2015,06,28,09,50,23.70
2015,06,28,09,51,23.80
2015,06,28,09,52,23.90
2015,06,28,09,53,24.00
2015,06,28,09,54,24.00
2015,06,28,09,55,24.10
2015,06,28,09,56,24.20
2015,06,28,09,57,24.30
2015,06,28,09,58,24.40
2015,06,28,09,59,24.50
2015,06,28,10,00,24.60
2015,06,28,10,01,24.70
2015,06,28,10,02,24.90
2015,06,28,10,03,24.90
2015,06,28,10,04,24.90
2015,06,28,10,05,24.80
2015,06,28,10,06,24.70
2015,06,28,10,07,24.70
2015,06,28,10,08,24.60
2015,06,28,10,09,24.60
2015,06,28,10,10,24.40
2015,06,28,10,11,24.30
2015,06,28,10,12,24.30
2015,06,28,10,13,24.30
2015,06,28,10,14,24.30
2015,06,28,10,15,24.40
2015,06,28,10,16,24.40
2015,06,28,10,17,24.50
2015,06,28,10,18,24.60
2015,06,28,10,19,24.70
2015,06,28,10,20,24.80
2015,06,28,10,21,24.80
2015,06,28,10,22,24.80
2015,06,28,10,23,24.80
2015,06,28,10,24,24.80
2015,06,28,10,25,24.80
2015,06,28,10,26,24.80
2015,06,28,10,27,24.70
2015,06,28,10,28,24.70
2015,06,28,10,29,24.70
2015,06,28,10,30,24.70
2015,06,28,10,31,24.70
2015,06,28,10,32,24.70
2015,06,28,10,33,24.80
2015,06,28,10,34,24.80
2015,06,28,10,35,24.90
2015,06,28,10,36,24.90
2015,06,28,10,37,24.90
2015,06,28,10,38,24.80
2015,06,28,10,39,24.70
2015,06,28,10,40,24.70
2015,06,28,10,41,24.60
2015,06,28,10,42,24.50
2015,06,28,10,43,24.50
2015,06,28,10,44,24.50
2015,06,28,10,45,24.50
2015,06,28,10,46,24.50
2015,06,28,10,47,24.60
2015,06,28,10,48,24.60
2015,06,28,10,49,24.70
2015,06,28,10,50,24.70
2015,06,28,10,51,24.70
2015,06,28,10,52,24.70
2015,06,28,10,53,24.70
2015,06,28,10,54,24.80
2015,06,28,10,55,24.90
2015,06,28,10,56,24.90
2015,06,28,10,57,25.00
2015,06,28,10,58,25.10
2015,06,28,10,59,25.20
2015,06,28,11,00,25.20
2015,06,28,11,01,25.30
2015,06,28,11,02,25.30
2015,06,28,11,03,25.30
2015,06,28,11,04,25.30
2015,06,28,11,05,25.40
2015,06,28,11,06,25.40
2015,06,28,11,07,25.50
2015,06,28,11,08,25.60
2015,06,28,11,09,25.60
2015,06,28,11,10,25.70
2015,06,28,11,11,25.70
2015,06,28,11,12,25.60
2015,06,28,11,13,25.60
2015,06,28,11,14,25.60
2015,06,28,11,15,25.70
2015,06,28,11,16,25.70
2015,06,28,11,17,25.70
2015,06,28,11,18,25.80
2015,06,28,11,19,25.90
2015,06,28,11,20,26.00
2015,06,28,11,21,26.10
2015,06,28,11,22,26.10
2015,06,28,11,23,26.20
2015,06,28,11,24,26.30
2015,06,28,11,25,26.30
2015,06,28,11,26,26.20
2015,06,28,11,27,26.10
2015,06,28,11,28,26.10
2015,06,28,11,29,26.00
2015,06,28,11,30,26.00
2015,06,28,11,31,26.00
2015,06,28,11,32,26.00
2015,06,28,11,33,26.00
2015,06,28,11,34,26.00
2015,06,28,11,35,25.90
2015,06,28,11,36,25.90
2015,06,28,11,37,25.90
2015,06,28,11,38,25.90
2015,06,28,11,39,25.80
2015,06,28,11,40,25.80
2015,06,28,11,41,25.80
2015,06,28,11,42,25.80
2015,06,28,11,43,25.90
2015,06,28,11,44,25.80
2015,06,28,11,45,25.80
2015,06,28,11,46,25.80
2015,06,28,11,47,25.80
2015,06,28,11,48,25.80
2015,06,28,11,49,25.70
2015,06,28,11,50,25.60
2015,06,28,11,51,25.60
2015,06,28,11,52,25.60
2015,06,28,11,53,25.60
2015,06,28,11,54,25.50
2015,06,28,11,55,25.50
2015,06,28,11,56,25.40
2015,06,28,11,57,25.20
2015,06,28,11,58,25.10
2015,06,28,11,59,25.00
2015,06,28,12,00,25.00
2015,06,28,12,01,25.10
2015,06,28,12,02,25.10
2015,06,28,12,03,25.10
2015,06,28,12,04,25.10
2015,06,28,12,05,25.10
2015,06,28,12,06,25.00
2015,06,28,12,07,24.90
2015,06,28,12,08,24.80
2015,06,28,12,09,24.70
2015,06,28,12,10,24.60
2015,06,28,12,11,24.40
2015,06,28,12,12,24.30
2015,06,28,12,13,24.00
2015,06,28,12,14,23.80
2015,06,28,12,15,23.60
2015,06,28,12,16,23.40
2015,06,28,12,17,23.20
2015,06,28,12,18,23.10
2015,06,28,12,19,22.90
2015,06,28,12,20,22.70
2015,06,28,12,21,22.50
2015,06,28,12,22,22.40
2015,06,28,12,23,22.30
2015,06,28,12,24,22.20
2015,06,28,12,25,22.00
2015,06,28,12,26,21.90
2015,06,28,12,27,21.90
2015,06,28,12,28,21.80
2015,06,28,12,29,21.60
2015,06,28,12,30,21.50
2015,06,28,12,31,21.40
2015,06,28,12,32,21.30
2015,06,28,12,33,21.10
2015,06,28,12,34,21.00
2015,06,28,12,35,20.90
2015,06,28,12,36,20.90
2015,06,28,12,37,20.80
2015,06,28,12,38,20.80
2015,06,28,12,39,20.70
2015,06,28,12,40,20.60
2015,06,28,12,41,20.60
2015,06,28,12,42,20.60
2015,06,28,12,43,20.70
2015,06,28,12,44,20.60
2015,06,28,12,45,20.60
2015,06,28,12,46,20.60
2015,06,28,12,47,20.50
2015,06,28,12,48,20.40
2015,06,28,12,49,20.40
2015,06,28,12,50,20.40
2015,06,28,12,51,20.30
2015,06,28,12,52,20.30
2015,06,28,12,53,20.30
2015,06,28,12,54,20.30
2015,06,28,12,55,20.30
2015,06,28,12,56,20.30
2015,06,28,12,57,20.20
2015,06,28,12,58,20.20
2015,06,28,12,59,20.30
2015,06,28,13,00,20.30
2015,06,28,13,01,20.30
2015,06,28,13,02,20.30
2015,06,28,13,03,20.30
2015,06,28,13,04,20.30
2015,06,28,13,05,20.30
2015,06,28,13,06,20.40
2015,06,28,13,07,20.40
2015,06,28,13,08,20.40
2015,06,28,13,09,20.40
2015,06,28,13,10,20.30
2015,06,28,13,11,20.20
2015,06,28,13,12,20.20
2015,06,28,13,13,20.20
2015,06,28,13,14,20.20
2015,06,28,13,15,20.20
2015,06,28,13,16,20.20
2015,06,28,13,17,20.20
2015,06,28,13,18,20.20
2015,06,28,13,19,20.20
2015,06,28,13,20,20.30
2015,06,28,13,21,20.30
2015,06,28,13,22,20.40
2015,06,28,13,23,20.40
2015,06,28,13,24,20.40
2015,06,28,13,25,20.30
2015,06,28,13,26,20.20
2015,06,28,13,27,20.10
2015,06,28,13,28,20.00
2015,06,28,13,29,19.90
2015,06,28,13,30,19.90
2015,06,28,13,31,19.90
2015,06,28,13,32,19.90
2015,06,28,13,33,19.90
2015,06,28,13,34,19.80
2015,06,28,13,35,19.80
2015,06,28,13,36,19.80
2015,06,28,13,37,19.80
2015,06,28,13,38,19.90
2015,06,28,13,39,19.90
2015,06,28,13,40,20.00
2015,06,28,13,41,20.00
2015,06,28,13,42,20.10
2015,06,28,13,43,20.10
2015,06,28,13,44,20.10
2015,06,28,13,45,20.10
2015,06,28,13,46,20.10
2015,06,28,13,47,20.10
2015,06,28,13,48,20.10
2015,06,28,13,49,20.20
2015,06,28,13,50,20.30
2015,06,28,13,51,20.30
2015,06,28,13,52,20.40
2015,06,28,13,53,20.40
2015,06,28,13,54,20.40
2015,06,28,13,55,20.40
2015,06,28,13,56,20.40
2015,06,28,13,57,20.50
2015,06,28,13,58,20.50
2015,06,28,13,59,20.60
2015,06,28,14,00,20.70
2015,06,28,14,01,20.70
2015,06,28,14,02,20.80
2015,06,28,14,03,20.80
2015,06,28,14,04,20.90
2015,06,28,14,05,21.00
2015,06,28,14,06,21.00
2015,06,28,14,07,21.10
2015,06,28,14,08,21.20
2015,06,28,14,09,21.20
2015,06,28,14,10,21.20
2015,06,28,14,11,21.10
2015,06,28,14,12,21.20
2015,06,28,14,13,21.20
2015,06,28,14,14,21.20
2015,06,28,14,15,21.30
2015,06,28,14,16,21.40
2015,06,28,14,17,21.40
2015,06,28,14,18,21.50
2015,06,28,14,19,21.50
2015,06,28,14,20,21.50
2015,06,28,14,21,21.60
2015,06,28,14,22,21.60
2015,06,28,14,23,21.60
2015,06,28,14,24,21.60
2015,06,28,14,25,21.60
2015,06,28,14,26,21.60
2015,06,28,14,27,21.50
2015,06,28,14,28,21.50
2015,06,28,14,29,21.50
2015,06,28,14,30,21.50
2015,06,28,14,31,21.40
2015,06,28,14,32,21.30
2015,06,28,14,33,21.20
2015,06,28,14,34,21.10
2015,06,28,14,35,21.00
2015,06,28,14,36,20.90
2015,06,28,14,37,20.80
2015,06,28,14,38,20.80
2015,06,28,14,39,20.80
2015,06,28,14,40,20.80
2015,06,28,14,41,20.80
2015,06,28,14,42,20.90
2015,06,28,14,43,20.90
2015,06,28,14,44,20.90
2015,06,28,14,45,20.90
2015,06,28,14,46,20.80
2015,06,28,14,47,20.80
2015,06,28,14,48,20.80
2015,06,28,14,49,20.80
2015,06,28,14,50,20.90
2015,06,28,14,51,21.00
2015,06,28,14,52,21.10
2015,06,28,14,53,21.20
2015,06,28,14,54,21.30
2015,06,28,14,55,21.30
2015,06,28,14,56,21.30
2015,06,28,14,57,21.30
2015,06,28,14,58,21.30
2015,06,28,14,59,21.20
2015,06,28,15,00,21.10
2015,06,28,15,01,21.00
2015,06,28,15,02,21.00
2015,06,28,15,03,21.00
2015,06,28,15,04,21.00
2015,06,28,15,05,21.00
2015,06,28,15,06,21.10
2015,06,28,15,07,21.10
2015,06,28,15,08,21.10
2015,06,28,15,09,21.10
2015,06,28,15,10,21.10
2015,06,28,15,11,21.10
2015,06,28,15,12,21.00
2015,06,28,15,13,20.90
2015,06,28,15,14,20.90
2015,06,28,15,15,20.90
2015,06,28,15,16,20.80
2015,06,28,15,17,20.80
2015,06,28,15,18,20.90
2015,06,28,15,19,20.90
2015,06,28,15,20,20.90
2015,06,28,15,21,20.90
2015,06,28,15,22,20.80
2015,06,28,15,23,20.80
2015,06,28,15,24,20.70
2015,06,28,15,25,20.70
2015,06,28,15,26,20.60
2015,06,28,15,27,20.70
2015,06,28,15,28,20.70
2015,06,28,15,29,20.70
2015,06,28,15,30,20.70
2015,06,28,15,31,20.70
2015,06,28,15,32,20.70
2015,06,28,15,33,20.70
2015,06,28,15,34,20.70
2015,06,28,15,35,20.60
2015,06,28,15,36,20.60
2015,06,28,15,37,20.60
2015,06,28,15,38,20.60
2015,06,28,15,39,20.60
2015,06,28,15,40,20.60
2015,06,28,15,41,20.60
2015,06,28,15,42,20.70
2015,06,28,15,43,20.70
2015,06,28,15,44,20.70
2015,06,28,15,45,20.70
2015,06,28,15,46,20.80
2015,06,28,15,47,20.80
2015,06,28,15,48,20.80
2015,06,28,15,49,20.90
2015,06,28,15,50,21.00
2015,06,28,15,51,21.10
2015,06,28,15,52,21.20
2015,06,28,15,53,21.30
2015,06,28,15,54,21.40
2015,06,28,15,55,21.50
2015,06,28,15,56,21.60
2015,06,28,15,57,21.70
2015,06,28,15,58,21.80
2015,06,28,15,59,21.80
2015,06,28,16,00,21.90
2015,06,28,16,01,22.00
2015,06,28,16,02,22.00
2015,06,28,16,03,22.10
2015,06,28,16,04,22.10
2015,06,28,16,05,22.20
2015,06,28,16,06,22.20
2015,06,28,16,07,22.30
2015,06,28,16,08,22.40
2015,06,28,16,09,22.40
2015,06,28,16,10,22.50
2015,06,28,16,11,22.60
2015,06,28,16,12,22.60
2015,06,28,16,13,22.70
2015,06,28,16,14,22.80
2015,06,28,16,15,22.90
2015,06,28,16,16,23.00
2015,06,28,16,17,23.10
2015,06,28,16,18,23.10
2015,06,28,16,19,23.10
2015,06,28,16,20,23.10
2015,06,28,16,21,23.10
2015,06,28,16,22,23.20
2015,06,28,16,23,23.20
2015,06,28,16,24,23.20
2015,06,28,16,25,23.20
2015,06,28,16,26,23.20
2015,06,28,16,27,23.20
2015,06,28,16,28,23.20
2015,06,28,16,29,23.20
2015,06,28,16,30,23.20
2015,06,28,16,31,23.20
2015,06,28,16,32,23.30
2015,06,28,16,33,23.30
2015,06,28,16,34,23.30
2015,06,28,16,35,23.40
2015,06,28,16,36,23.40
2015,06,28,16,37,23.30
2015,06,28,16,38,23.30
2015,06,28,16,39,23.20
2015,06,28,16,40,23.20
2015,06,28,16,41,23.10
2015,06,28,16,42,23.10
2015,06,28,16,43,23.10
2015,06,28,16,44,23.10
2015,06,28,16,45,23.10
2015,06,28,16,46,23.10
2015,06,28,16,47,23.20
2015,06,28,16,48,23.30
2015,06,28,16,49,23.30
2015,06,28,16,50,23.40
2015,06,28,16,51,23.50
2015,06,28,16,52,23.50
2015,06,28,16,53,23.60
2015,06,28,16,54,23.60
2015,06,28,16,55,23.70
2015,06,28,16,56,23.70
2015,06,28,16,57,23.70
2015,06,28,16,58,23.80
2015,06,28,16,59,23.80
2015,06,28,17,00,23.80
2015,06,28,17,01,23.90
2015,06,28,17,02,23.90
2015,06,28,17,03,23.90
2015,06,28,17,04,24.00
2015,06,28,17,05,24.00
2015,06,28,17,06,24.00
2015,06,28,17,07,24.00
2015,06,28,17,08,24.00
2015,06,28,17,09,24.10
2015,06,28,17,10,24.10
2015,06,28,17,11,24.10
2015,06,28,17,12,24.10
2015,06,28,17,13,24.20
2015,06,28,17,14,24.20
2015,06,28,17,15,24.20
2015,06,28,17,16,24.20
2015,06,28,17,17,24.20
2015,06,28,17,18,24.30
2015,06,28,17,19,24.30